User: anonymous   Login
Location: Columbia
(38.9520°N, 92.3340°W)
Time: 02:06:55
(UTC-05:00)
Language:

Cosmos 158 Rocket - Orbit

View from above orbital plane
View from above orbital plane
View from above satellite
View from above satellite

Ground track
Ground track

The orbit data is extracted from the following two-line orbital elements,

1  2802U 67045B   16175.94175500 +.00000058 +00000-0 +24847-4 0  9997
2  2802 074.0123 113.5517 0067871 254.2762 105.0901 14.43582832577286
Epoch (UTC): 23 June 2016 22:36:07
Eccentricity: 0.0067871
inclination: 74.0123°
perigee height: 698 km
apogee height: 795 km
right ascension of ascending node: 113.5517°
argument of perigee: 254.2762°
revolutions per day: 14.43582832
mean anomaly at epoch: 105.0901°
orbit number at epoch: 57728

The dashed part of the orbit path shows where the satellite is in the earth's shadow,  

DLR